| time (UTC) | temp F | wind direction | speed knots | gust knots | rain 1hr in | rain 24hr in | rain mn in | humidity % | barometer mb |
| 20260510115839 | 57 | 352 | 2.6 | 4.3 | 0.00 | 0.01 | 0.01 | 90 | 1016.3 |
| 20260510115339 | 57 | 335 | 2.6 | 4.3 | 0.00 | 0.01 | 0.01 | 90 | 1016.2 |
| 20260510114839 | 57 | 355 | 2.6 | 6.1 | 0.00 | 0.01 | 0.01 | 91 | 1016.2 |
| 20260510114339 | 57 | 350 | 2.6 | 4.3 | 0.00 | 0.01 | 0.01 | 91 | 1016.2 |
| 20260510113839 | 57 | 344 | 1.7 | 3.5 | 0.00 | 0.01 | 0.01 | 92 | 1016.0 |
| 20260510113339 | 57 | 346 | 2.6 | 4.3 | 0.00 | 0.01 | 0.01 | 92 | 1015.8 |
| 20260510112839 | 57 | 351 | 2.6 | 6.1 | 0.00 | 0.01 | 0.01 | 93 | 1015.7 |
| 20260510112339 | 56 | 351 | 1.7 | 3.5 | 0.00 | 0.01 | 0.01 | 93 | 1015.4 |
| 20260510111839 | 56 | 356 | 0.9 | 2.6 | 0.00 | 0.01 | 0.01 | 94 | 1015.4 |
| 20260510111339 | 56 | 346 | 0.9 | 1.7 | 0.00 | 0.01 | 0.01 | 94 | 1015.3 |
| 20260510110839 | 56 | 352 | 1.7 | 3.5 | 0.00 | 0.01 | 0.01 | 94 | 1015.3 |
| 20260510110340 | 56 | 350 | 0.9 | 2.6 | 0.00 | 0.01 | 0.01 | 95 | 1015.3 |
| 20260510105840 | 56 | 358 | 0.0 | 1.7 | 0.00 | 0.01 | 0.01 | 95 | 1015.1 |
| 20260510105340 | 56 | 0 | 0.0 | 0.0 | 0.00 | 0.01 | 0.01 | 95 | 1015.0 |
| 20260510104840 | 56 | 0 | 0.0 | 0.0 | 0.00 | 0.01 | 0.01 | 95 | 1014.8 |
| 20260510104340 | 55 | 3 | 0.0 | 0.0 | 0.00 | 0.01 | 0.01 | 94 | 1014.8 |
| 20260510103840 | 56 | 3 | 0.0 | 0.0 | 0.00 | 0.01 | 0.01 | 94 | 1014.7 |
| 20260510103340 | 56 | 3 | 0.0 | 0.0 | 0.00 | 0.01 | 0.01 | 94 | 1014.5 |
| 20260510102840 | 56 | 3 | 0.0 | 0.0 | 0.00 | 0.01 | 0.01 | 94 | 1014.4 |
| 20260510102340 | 56 | 3 | 0.0 | 0.0 | 0.00 | 0.01 | 0.01 | 94 | 1014.5 |
| 20260510101840 | 56 | 3 | 0.0 | 0.0 | 0.00 | 0.01 | 0.01 | 94 | 1014.4 |
| 20260510101340 | 56 | 3 | 0.0 | 0.0 | 0.00 | 0.01 | 0.01 | 94 | 1014.2 |
| 20260510100840 | 56 | 3 | 0.0 | 1.7 | 0.00 | 0.01 | 0.01 | 94 | 1014.2 |
| 20260510100340 | 56 | 0 | 0.9 | 1.7 | 0.00 | 0.01 | 0.01 | 94 | 1014.2 |
| 20260510095840 | 56 | 355 | 0.0 | 1.7 | 0.00 | 0.01 | 0.01 | 94 | 1014.0 |
| 20260510095340 | 56 | 0 | 0.0 | 0.0 | 0.00 | 0.01 | 0.01 | 94 | 1014.1 |
| 20260510094840 | 56 | 0 | 0.0 | 0.9 | 0.00 | 0.01 | 0.01 | 94 | 1014.0 |
| 20260510094340 | 56 | 1 | 0.0 | 0.9 | 0.00 | 0.01 | 0.01 | 94 | 1013.8 |
| 20260510093840 | 56 | 273 | 0.0 | 0.0 | 0.00 | 0.01 | 0.01 | 93 | 1013.8 |
| 20260510093340 | 56 | 262 | 0.0 | 0.0 | 0.00 | 0.01 | 0.01 | 93 | 1013.7 |
| 20260510092840 | 56 | 262 | 0.0 | 0.0 | 0.00 | 0.01 | 0.01 | 93 | 1013.6 |
| 20260510092340 | 56 | 262 | 0.0 | 0.0 | 0.00 | 0.01 | 0.01 | 93 | 1013.4 |
| 20260510091840 | 56 | 262 | 0.0 | 0.0 | 0.00 | 0.01 | 0.01 | 93 | 1013.4 |
| 20260510091340 | 56 | 262 | 0.0 | 0.0 | 0.00 | 0.01 | 0.01 | 92 | 1013.5 |
| 20260510090840 | 56 | 262 | 0.0 | 0.0 | 0.00 | 0.01 | 0.01 | 92 | 1013.3 |
| 20260510090340 | 56 | 215 | 0.0 | 0.0 | 0.00 | 0.01 | 0.01 | 92 | 1013.4 |
| 20260510085840 | 57 | 215 | 0.0 | 0.0 | 0.00 | 0.01 | 0.01 | 91 | 1013.2 |
| 20260510085340 | 57 | 215 | 0.0 | 0.0 | 0.00 | 0.01 | 0.01 | 91 | 1013.1 |
| 20260510084840 | 57 | 215 | 0.0 | 0.0 | 0.00 | 0.01 | 0.01 | 91 | 1013.2 |
| 20260510084340 | 57 | 215 | 0.0 | 0.0 | 0.00 | 0.01 | 0.01 | 91 | 1013.1 |
| 20260510083840 | 57 | 213 | 0.0 | 0.0 | 0.01 | 0.01 | 0.01 | 91 | 1013.0 |
| 20260510083340 | 58 | 213 | 0.0 | 0.0 | 0.01 | 0.01 | 0.01 | 91 | 1012.9 |
| 20260510082840 | 58 | 213 | 0.0 | 0.0 | 0.01 | 0.01 | 0.01 | 91 | 1012.7 |
| 20260510082340 | 58 | 213 | 0.0 | 0.0 | 0.01 | 0.01 | 0.01 | 91 | 1012.8 |
| 20260510081840 | 58 | 213 | 0.0 | 0.0 | 0.01 | 0.01 | 0.01 | 91 | 1012.8 |
| 20260510081340 | 58 | 213 | 0.0 | 0.0 | 0.01 | 0.01 | 0.01 | 90 | 1013.0 |
| 20260510080840 | 59 | 213 | 0.0 | 0.0 | 0.01 | 0.01 | 0.01 | 90 | 1013.0 |
| 20260510080340 | 59 | 213 | 0.0 | 0.9 | 0.01 | 0.01 | 0.01 | 90 | 1013.0 |
| 20260510075840 | 59 | 247 | 0.0 | 0.9 | 0.01 | 0.01 | 0.01 | 89 | 1013.2 |
| 20260510075340 | 59 | 18 | 0.0 | 0.0 | 0.01 | 0.01 | 0.01 | 89 | 1013.0 |
| 20260510074840 | 59 | 17 | 0.0 | 0.9 | 0.01 | 0.01 | 0.01 | 89 | 1013.3 |
| 20260510074340 | 60 | 293 | 0.0 | 0.0 | 0.01 | 0.01 | 0.01 | 87 | 1013.2 |
| 20260510073840 | 60 | 293 | 0.0 | 0.0 | 0.00 | 0.00 | 0.00 | 86 | 1013.4 |
| 20260510073340 | 60 | 293 | 0.0 | 0.0 | 0.00 | 0.00 | 0.00 | 86 | 1013.2 |
| 20260510072840 | 60 | 39 | 0.0 | 0.0 | 0.00 | 0.00 | 0.00 | 86 | 1013.2 |
| 20260510072340 | 60 | 39 | 0.0 | 0.0 | 0.00 | 0.00 | 0.00 | 86 | 1013.3 |
| 20260510071840 | 61 | 304 | 0.0 | 0.0 | 0.00 | 0.00 | 0.00 | 84 | 1013.4 |
| 20260510071340 | 61 | 286 | 0.0 | 0.9 | 0.00 | 0.00 | 0.00 | 84 | 1013.5 |
| 20260510070840 | 61 | 338 | 0.0 | 0.0 | 0.00 | 0.00 | 0.00 | 83 | 1013.2 |
| 20260510070340 | 61 | 339 | 0.9 | 1.7 | 0.00 | 0.00 | 0.00 | 82 | 1013.0 |
| 20260510065840 | 61 | 0 | 0.9 | 4.3 | 0.00 | 0.00 | 0.00 | 82 | 1013.0 |
| 20260510065340 | 61 | 7 | 1.7 | 4.3 | 0.00 | 0.00 | 0.00 | 83 | 1013.0 |
| 20260510064840 | 61 | 346 | 3.5 | 4.3 | 0.00 | 0.00 | 0.00 | 83 | 1013.0 |
| 20260510064340 | 61 | 334 | 4.3 | 8.7 | 0.00 | 0.00 | 0.00 | 83 | 1013.2 |
| 20260510063840 | 62 | 348 | 5.2 | 7.8 | 0.00 | 0.09 | 0.00 | 83 | 1013.2 |
| 20260510063340 | 62 | 344 | 5.2 | 8.7 | 0.00 | 0.09 | 0.00 | 83 | 1013.3 |
| 20260510062840 | 62 | 348 | 7.0 | 10.4 | 0.00 | 0.09 | 0.00 | 83 | 1013.2 |
| 20260510062340 | 62 | 358 | 6.1 | 10.4 | 0.00 | 0.09 | 0.00 | 82 | 1013.2 |
| 20260510061840 | 62 | 342 | 6.1 | 8.7 | 0.00 | 0.09 | 0.00 | 83 | 1013.3 |
| 20260510061340 | 62 | 3 | 7.0 | 10.4 | 0.00 | 0.09 | 0.00 | 82 | 1013.0 |
| 20260510060840 | 62 | 350 | 7.0 | 13.0 | 0.00 | 0.09 | 0.00 | 82 | 1013.0 |
| 20260510060340 | 62 | 355 | 5.2 | 11.3 | 0.00 | 0.09 | 0.00 | 84 | 1012.8 |
| 20260510055840 | 61 | 348 | 2.6 | 10.4 | 0.00 | 0.09 | 0.00 | 89 | 1012.6 |
| 20260510055340 | 60 | 332 | 2.6 | 6.1 | 0.00 | 0.09 | 0.00 | 93 | 1012.5 |
| 20260510054840 | 59 | 330 | 1.7 | 7.8 | 0.00 | 0.09 | 0.00 | 96 | 1012.5 |
| 20260510054340 | 58 | 347 | 0.0 | 1.7 | 0.00 | 0.09 | 0.00 | 95 | 1011.9 |
| 20260510053840 | 58 | 282 | 0.0 | 0.0 | 0.00 | 0.20 | 0.00 | 95 | 1011.5 |
| 20260510053340 | 58 | 282 | 0.0 | 0.0 | 0.00 | 0.20 | 0.00 | 95 | 1011.4 |
| 20260510052840 | 58 | 282 | 0.0 | 0.0 | 0.00 | 0.20 | 0.00 | 95 | 1011.3 |
| 20260510052341 | 58 | 282 | 0.0 | 0.0 | 0.00 | 0.20 | 0.23 | 95 | 1011.4 |
| 20260510051841 | 58 | 282 | 0.0 | 0.0 | 0.00 | 0.20 | 0.23 | 95 | 1011.4 |
| 20260510051341 | 58 | 282 | 0.0 | 0.0 | 0.00 | 0.20 | 0.23 | 95 | 1011.4 |
| 20260510050841 | 58 | 282 | 0.0 | 0.0 | 0.00 | 0.20 | 0.23 | 94 | 1011.4 |
| 20260510050341 | 58 | 282 | 0.0 | 0.0 | 0.00 | 0.20 | 0.23 | 94 | 1011.4 |
| 20260510045841 | 58 | 282 | 0.0 | 0.0 | 0.00 | 0.20 | 0.23 | 94 | 1011.4 |
| 20260510045341 | 58 | 282 | 0.0 | 0.0 | 0.00 | 0.20 | 0.23 | 94 | 1011.4 |
| 20260510044841 | 58 | 282 | 0.0 | 0.0 | 0.00 | 0.20 | 0.23 | 94 | 1011.3 |
| 20260510044341 | 58 | 282 | 0.0 | 0.0 | 0.00 | 0.20 | 0.23 | 94 | 1011.4 |
| 20260510043841 | 58 | 282 | 0.0 | 0.0 | 0.00 | 0.24 | 0.23 | 94 | 1011.5 |
| 20260510043341 | 58 | 282 | 0.0 | 0.0 | 0.00 | 0.24 | 0.23 | 94 | 1011.5 |
| 20260510042841 | 58 | 282 | 0.0 | 0.0 | 0.00 | 0.24 | 0.23 | 94 | 1011.5 |
| 20260510042341 | 58 | 282 | 0.0 | 0.0 | 0.00 | 0.24 | 0.23 | 93 | 1011.5 |
| 20260510041841 | 58 | 282 | 0.0 | 0.0 | 0.00 | 0.24 | 0.23 | 93 | 1011.5 |
| 20260510041341 | 58 | 282 | 0.0 | 0.0 | 0.00 | 0.24 | 0.23 | 93 | 1011.5 |
| 20260510040841 | 58 | 282 | 0.0 | 0.0 | 0.00 | 0.24 | 0.23 | 93 | 1011.5 |
| 20260510040341 | 59 | 282 | 0.0 | 0.0 | 0.00 | 0.24 | 0.23 | 93 | 1011.5 |
| 20260510035841 | 59 | 282 | 0.0 | 0.0 | 0.00 | 0.24 | 0.23 | 93 | 1011.6 |
| 20260510035341 | 59 | 282 | 0.0 | 0.0 | 0.00 | 0.24 | 0.23 | 93 | 1011.5 |
| 20260510034841 | 59 | 282 | 0.0 | 0.0 | 0.00 | 0.24 | 0.23 | 93 | 1011.5 |
| 20260510034341 | 59 | 282 | 0.0 | 0.0 | 0.00 | 0.24 | 0.23 | 93 | 1011.6 |
| 20260510033841 | 60 | 282 | 0.0 | 0.0 | 0.00 | 0.24 | 0.23 | 93 | 1011.5 |
| 20260510033341 | 60 | 282 | 0.0 | 0.0 | 0.00 | 0.24 | 0.23 | 93 | 1011.6 |
| 20260510032841 | 60 | 282 | 0.0 | 0.0 | 0.00 | 0.24 | 0.23 | 93 | 1011.6 |
| 20260510032341 | 60 | 282 | 0.0 | 0.0 | 0.00 | 0.24 | 0.23 | 92 | 1011.5 |
| 20260510031841 | 60 | 282 | 0.0 | 0.0 | 0.00 | 0.24 | 0.23 | 92 | 1011.5 |
| 20260510031341 | 60 | 282 | 0.0 | 0.0 | 0.00 | 0.24 | 0.23 | 92 | 1011.5 |
| 20260510030841 | 61 | 282 | 0.0 | 0.0 | 0.00 | 0.24 | 0.23 | 92 | 1011.5 |
| 20260510030341 | 61 | 282 | 0.0 | 0.0 | 0.00 | 0.24 | 0.23 | 92 | 1011.5 |
| 20260510025841 | 61 | 282 | 0.0 | 0.0 | 0.00 | 0.24 | 0.23 | 92 | 1011.5 |
| 20260510025341 | 61 | 282 | 0.0 | 0.0 | 0.00 | 0.24 | 0.23 | 91 | 1011.4 |
| 20260510024841 | 61 | 282 | 0.0 | 0.0 | 0.00 | 0.24 | 0.23 | 91 | 1011.3 |
| 20260510024341 | 62 | 282 | 0.0 | 0.0 | 0.00 | 0.24 | 0.23 | 91 | 1011.3 |
| 20260510023841 | 62 | 282 | 0.0 | 0.0 | 0.00 | 0.24 | 0.23 | 91 | 1011.3 |
| 20260510023341 | 62 | 282 | 0.0 | 0.0 | 0.00 | 0.24 | 0.23 | 91 | 1011.2 |
| 20260510022841 | 62 | 282 | 0.0 | 0.0 | 0.00 | 0.24 | 0.23 | 91 | 1011.2 |
| 20260510022341 | 62 | 282 | 0.0 | 0.0 | 0.00 | 0.24 | 0.23 | 90 | 1011.0 |
| 20260510021841 | 62 | 282 | 0.0 | 0.0 | 0.00 | 0.24 | 0.23 | 90 | 1011.0 |
| 20260510021341 | 62 | 282 | 0.0 | 0.0 | 0.00 | 0.24 | 0.23 | 89 | 1011.0 |
| 20260510020841 | 62 | 282 | 0.0 | 0.0 | 0.00 | 0.24 | 0.23 | 88 | 1010.9 |
| 20260510020341 | 62 | 282 | 0.0 | 0.0 | 0.00 | 0.24 | 0.23 | 87 | 1010.9 |
| 20260510015841 | 62 | 282 | 0.0 | 0.0 | 0.00 | 0.24 | 0.23 | 88 | 1010.8 |
| 20260510015341 | 62 | 282 | 0.0 | 0.0 | 0.00 | 0.24 | 0.23 | 87 | 1010.6 |
| 20260510014841 | 63 | 282 | 0.0 | 0.9 | 0.00 | 0.24 | 0.23 | 87 | 1010.5 |
| 20260510014342 | 63 | 282 | 0.0 | 0.0 | 0.00 | 0.24 | 0.23 | 86 | 1010.5 |
| 20260510013841 | 64 | 282 | 0.0 | 0.0 | 0.00 | 0.24 | 0.23 | 86 | 1010.5 |
| 20260510013341 | 64 | 282 | 0.0 | 0.9 | 0.00 | 0.24 | 0.23 | 85 | 1010.3 |
| 20260510012841 | 65 | 282 | 0.0 | 0.0 | 0.00 | 0.24 | 0.23 | 84 | 1010.3 |
| 20260510012341 | 65 | 282 | 0.0 | 0.9 | 0.00 | 0.24 | 0.23 | 83 | 1010.3 |
| 20260510011841 | 65 | 282 | 0.0 | 0.0 | 0.00 | 0.24 | 0.23 | 82 | 1010.1 |
| 20260510011341 | 66 | 282 | 0.0 | 0.0 | 0.00 | 0.24 | 0.23 | 80 | 1010.1 |
| 20260510010841 | 67 | 282 | 0.0 | 0.9 | 0.00 | 0.24 | 0.23 | 80 | 1010.0 |
| 20260510010341 | 67 | 281 | 0.0 | 0.0 | 0.00 | 0.24 | 0.23 | 79 | 1009.9 |
| 20260510005841 | 68 | 281 | 0.0 | 0.0 | 0.00 | 0.24 | 0.23 | 78 | 1009.8 |
| 20260510005341 | 68 | 281 | 0.0 | 0.0 | 0.00 | 0.24 | 0.23 | 76 | 1009.8 |
| 20260510004841 | 69 | 281 | 0.0 | 0.0 | 0.00 | 0.24 | 0.23 | 74 | 1009.6 |
| 20260510004341 | 70 | 281 | 0.0 | 0.0 | 0.00 | 0.24 | 0.23 | 75 | 1009.5 |
| 20260510003841 | 70 | 281 | 0.0 | 0.0 | 0.00 | 0.24 | 0.23 | 73 | 1009.5 |
| 20260510003341 | 71 | 281 | 0.0 | 0.0 | 0.00 | 0.24 | 0.23 | 73 | 1009.4 |
| 20260510002841 | 72 | 281 | 0.0 | 0.0 | 0.00 | 0.24 | 0.23 | 69 | 1009.3 |
| 20260510002341 | 72 | 281 | 0.0 | 0.9 | 0.00 | 0.24 | 0.23 | 67 | 1009.1 |
| 20260510001841 | 73 | 281 | 0.0 | 0.0 | 0.00 | 0.24 | 0.23 | 64 | 1009.1 |
| 20260510001341 | 73 | 281 | 0.0 | 0.0 | 0.00 | 0.24 | 0.23 | 64 | 1009.1 |
| 20260510000841 | 74 | 281 | 0.0 | 0.0 | 0.00 | 0.24 | 0.23 | 63 | 1009.3 |
| 20260510000342 | 74 | 281 | 0.0 | 0.0 | 0.00 | 0.24 | 0.23 | 62 | 1009.2 |
| 20260509235841 | 75 | 281 | 0.0 | 0.0 | 0.00 | 0.24 | 0.23 | 62 | 1009.1 |
| 20260509235342 | 75 | 281 | 0.0 | 0.9 | 0.00 | 0.24 | 0.23 | 60 | 1009.2 |
| 20260509234842 | 76 | 283 | 0.0 | 0.0 | 0.00 | 0.24 | 0.23 | 59 | 1009.2 |
| 20260509234342 | 76 | 236 | 0.0 | 0.0 | 0.00 | 0.24 | 0.23 | 59 | 1009.1 |
| 20260509233842 | 76 | 236 | 0.0 | 0.9 | 0.00 | 0.24 | 0.23 | 60 | 1009.1 |
| 20260509233342 | 77 | 217 | 0.0 | 0.9 | 0.00 | 0.24 | 0.23 | 60 | 1009.0 |
| 20260509232842 | 77 | 268 | 0.0 | 0.9 | 0.00 | 0.24 | 0.23 | 57 | 1008.9 |
| 20260509232342 | 77 | 312 | 0.0 | 1.7 | 0.00 | 0.24 | 0.23 | 56 | 1009.1 |
| 20260509231842 | 77 | 327 | 0.0 | 0.9 | 0.00 | 0.24 | 0.23 | 58 | 1009.2 |
| 20260509231342 | 78 | 261 | 0.0 | 1.7 | 0.00 | 0.24 | 0.23 | 57 | 1009.1 |
| 20260509230842 | 78 | 113 | 0.0 | 0.9 | 0.00 | 0.24 | 0.23 | 57 | 1009.0 |
| 20260509230342 | 78 | 313 | 0.0 | 0.9 | 0.00 | 0.24 | 0.23 | 56 | 1009.0 |
| 20260509225842 | 78 | 315 | 0.9 | 2.6 | 0.00 | 0.24 | 0.23 | 56 | 1008.8 |
| 20260509225342 | 78 | 339 | 0.9 | 2.6 | 0.00 | 0.24 | 0.23 | 56 | 1008.9 |
| 20260509224842 | 78 | 312 | 0.9 | 2.6 | 0.00 | 0.24 | 0.23 | 54 | 1008.8 |
| 20260509224342 | 78 | 317 | 0.9 | 3.5 | 0.00 | 0.24 | 0.23 | 55 | 1008.7 |
| 20260509223842 | 78 | 286 | 0.9 | 2.6 | 0.00 | 0.24 | 0.23 | 56 | 1008.8 |
| 20260509223342 | 79 | 335 | 0.9 | 3.5 | 0.00 | 0.24 | 0.23 | 52 | 1008.8 |
| 20260509222842 | 79 | 309 | 0.0 | 2.6 | 0.00 | 0.24 | 0.23 | 52 | 1008.8 |
| 20260509222342 | 79 | 276 | 0.0 | 1.7 | 0.00 | 0.24 | 0.23 | 54 | 1008.9 |
| 20260509221842 | 78 | 308 | 0.9 | 2.6 | 0.00 | 0.24 | 0.23 | 54 | 1008.9 |
| 20260509221342 | 78 | 314 | 0.9 | 4.3 | 0.00 | 0.24 | 0.23 | 55 | 1008.9 |
| 20260509220842 | 78 | 321 | 1.7 | 2.6 | 0.00 | 0.24 | 0.23 | 57 | 1008.9 |
| 20260509220342 | 78 | 315 | 1.7 | 5.2 | 0.00 | 0.24 | 0.23 | 54 | 1008.9 |
| 20260509215842 | 78 | 313 | 1.7 | 3.5 | 0.00 | 0.24 | 0.23 | 57 | 1008.9 |
| 20260509215342 | 78 | 315 | 0.9 | 5.2 | 0.00 | 0.24 | 0.23 | 53 | 1009.0 |
| 20260509214842 | 79 | 327 | 0.9 | 2.6 | 0.00 | 0.24 | 0.23 | 56 | 1009.0 |
| 20260509214342 | 79 | 325 | 0.9 | 5.2 | 0.00 | 0.24 | 0.23 | 55 | 1008.9 |
| 20260509213842 | 80 | 318 | 0.0 | 2.6 | 0.00 | 0.24 | 0.23 | 54 | 1008.9 |
| 20260509213342 | 79 | 321 | 0.9 | 1.7 | 0.00 | 0.24 | 0.23 | 55 | 1009.1 |
| 20260509212842 | 79 | 213 | 0.9 | 6.1 | 0.00 | 0.24 | 0.23 | 57 | 1009.1 |
| 20260509212342 | 79 | 200 | 0.0 | 0.9 | 0.00 | 0.24 | 0.23 | 60 | 1009.1 |
| 20260509211842 | 79 | 324 | 0.0 | 3.5 | 0.00 | 0.24 | 0.23 | 58 | 1008.9 |
| 20260509211342 | 79 | 309 | 0.0 | 0.9 | 0.00 | 0.24 | 0.23 | 55 | 1009.0 |
| 20260509210842 | 79 | 303 | 0.9 | 6.1 | 0.00 | 0.24 | 0.23 | 57 | 1009.1 |
| 20260509210342 | 78 | 305 | 0.9 | 4.3 | 0.00 | 0.24 | 0.23 | 59 | 1009.2 |
| 20260509205842 | 78 | 304 | 1.7 | 7.8 | 0.00 | 0.24 | 0.23 | 61 | 1009.2 |
| 20260509205342 | 78 | 299 | 1.7 | 8.7 | 0.00 | 0.24 | 0.23 | 62 | 1009.2 |
| 20260509204842 | 78 | 222 | 0.9 | 8.7 | 0.00 | 0.24 | 0.23 | 59 | 1009.1 |
| 20260509204342 | 78 | 306 | 0.9 | 2.6 | 0.00 | 0.24 | 0.23 | 61 | 1009.1 |
| 20260509203842 | 78 | 100 | 1.7 | 4.3 | 0.00 | 0.24 | 0.23 | 61 | 1009.2 |
| 20260509203342 | 77 | 290 | 0.9 | 9.6 | 0.00 | 0.24 | 0.23 | 57 | 1009.3 |
| 20260509202842 | 77 | 275 | 0.9 | 1.7 | 0.00 | 0.24 | 0.23 | 58 | 1009.4 |
| 20260509202342 | 77 | 306 | 0.9 | 8.7 | 0.00 | 0.24 | 0.23 | 60 | 1009.3 |
| 20260509201842 | 77 | 269 | 0.9 | 8.7 | 0.00 | 0.24 | 0.23 | 57 | 1009.3 |
| 20260509201342 | 77 | 296 | 0.9 | 6.1 | 0.00 | 0.24 | 0.23 | 61 | 1009.3 |
| 20260509200842 | 77 | 215 | 0.9 | 5.2 | 0.00 | 0.24 | 0.23 | 58 | 1009.3 |
| 20260509200342 | 77 | 321 | 1.7 | 6.1 | 0.00 | 0.24 | 0.23 | 62 | 1009.3 |
| 20260509195842 | 76 | 308 | 1.7 | 7.8 | 0.00 | 0.24 | 0.23 | 63 | 1009.3 |
| 20260509195342 | 76 | 217 | 1.7 | 6.1 | 0.00 | 0.24 | 0.23 | 61 | 1009.4 |
| 20260509194844 | 75 | 316 | 2.6 | 7.8 | 0.00 | 0.24 | 0.23 | 62 | 1009.4 |
| 20260509194342 | 75 | 249 | 3.5 | 7.8 | 0.00 | 0.24 | 0.23 | 66 | 1009.5 |
| 20260509193842 | 74 | 232 | 3.5 | 7.8 | 0.00 | 0.24 | 0.23 | 64 | 1009.5 |
| 20260509193342 | 74 | 246 | 4.3 | 8.7 | 0.00 | 0.24 | 0.23 | 66 | 1009.7 |
| 20260509192842 | 74 | 275 | 5.2 | 9.6 | 0.00 | 0.24 | 0.23 | 68 | 1009.7 |
| 20260509192342 | 74 | 242 | 4.3 | 9.6 | 0.00 | 0.24 | 0.23 | 64 | 1009.7 |
| 20260509191842 | 73 | 258 | 4.3 | 7.8 | 0.00 | 0.24 | 0.23 | 67 | 1009.7 |
| 20260509191342 | 73 | 251 | 4.3 | 7.8 | 0.00 | 0.24 | 0.23 | 65 | 1009.8 |
| 20260509190842 | 73 | 246 | 4.3 | 8.7 | 0.00 | 0.24 | 0.23 | 68 | 1009.8 |
| 20260509190342 | 73 | 240 | 4.3 | 7.8 | 0.00 | 0.24 | 0.23 | 68 | 1010.0 |
| 20260509185842 | 72 | 256 | 3.5 | 8.7 | 0.00 | 0.24 | 0.23 | 69 | 1010.0 |
| 20260509185342 | 72 | 225 | 3.5 | 8.7 | 0.00 | 0.24 | 0.23 | 68 | 1010.0 |
| 20260509184842 | 72 | 219 | 4.3 | 7.0 | 0.00 | 0.24 | 0.23 | 70 | 1010.1 |
| 20260509184343 | 72 | 320 | 4.3 | 8.7 | 0.00 | 0.24 | 0.23 | 73 | 1010.1 |
| 20260509183842 | 72 | 227 | 3.5 | 7.8 | 0.00 | 0.24 | 0.23 | 72 | 1010.1 |
| 20260509183342 | 71 | 283 | 3.5 | 7.0 | 0.00 | 0.24 | 0.23 | 75 | 1010.1 |
| 20260509182842 | 71 | 251 | 3.5 | 7.8 | 0.00 | 0.24 | 0.23 | 73 | 1010.1 |
| 20260509182343 | 71 | 238 | 3.5 | 7.8 | 0.00 | 0.24 | 0.23 | 73 | 1010.1 |
| 20260509181843 | 71 | 254 | 3.5 | 7.0 | 0.00 | 0.24 | 0.23 | 74 | 1010.2 |
| 20260509181343 | 71 | 259 | 2.6 | 7.0 | 0.00 | 0.24 | 0.23 | 76 | 1010.2 |
| 20260509180843 | 70 | 200 | 3.5 | 6.1 | 0.00 | 0.24 | 0.23 | 76 | 1010.1 |
| 20260509180343 | 70 | 229 | 4.3 | 8.7 | 0.00 | 0.24 | 0.23 | 76 | 1010.3 |
| 20260509175843 | 70 | 248 | 2.6 | 7.8 | 0.00 | 0.24 | 0.23 | 76 | 1010.3 |
| 20260509175343 | 70 | 236 | 2.6 | 5.2 | 0.00 | 0.24 | 0.23 | 74 | 1010.4 |
| 20260509174843 | 70 | 246 | 3.5 | 7.8 | 0.00 | 0.24 | 0.23 | 77 | 1010.4 |
| 20260509174343 | 69 | 275 | 2.6 | 7.8 | 0.00 | 0.24 | 0.23 | 75 | 1010.4 |
| 20260509173843 | 70 | 271 | 2.6 | 7.0 | 0.00 | 0.24 | 0.23 | 74 | 1010.5 |
| 20260509173343 | 69 | 265 | 1.7 | 6.1 | 0.00 | 0.24 | 0.23 | 76 | 1010.6 |
| 20260509172843 | 69 | 238 | 1.7 | 6.1 | 0.00 | 0.24 | 0.23 | 74 | 1010.7 |
| 20260509172343 | 68 | 328 | 2.6 | 5.2 | 0.00 | 0.24 | 0.23 | 75 | 1010.8 |
| 20260509171843 | 68 | 249 | 3.5 | 6.1 | 0.00 | 0.24 | 0.23 | 74 | 1010.8 |
| 20260509171343 | 68 | 225 | 3.5 | 8.7 | 0.00 | 0.24 | 0.23 | 75 | 1010.9 |
| 20260509170843 | 68 | 228 | 2.6 | 7.0 | 0.00 | 0.24 | 0.23 | 76 | 1010.9 |
| 20260509170343 | 68 | 195 | 2.6 | 8.7 | 0.00 | 0.24 | 0.23 | 75 | 1010.9 |
| 20260509165843 | 68 | 229 | 2.6 | 8.7 | 0.00 | 0.24 | 0.23 | 77 | 1010.9 |
| 20260509165343 | 67 | 302 | 3.5 | 10.4 | 0.00 | 0.24 | 0.23 | 76 | 1011.0 |
| 20260509164843 | 68 | 249 | 1.7 | 9.6 | 0.00 | 0.24 | 0.23 | 78 | 1011.0 |
| 20260509164343 | 67 | 235 | 1.7 | 6.1 | 0.00 | 0.24 | 0.23 | 80 | 1011.1 |
| 20260509163843 | 67 | 184 | 2.6 | 4.3 | 0.00 | 0.24 | 0.23 | 77 | 1011.0 |
| 20260509163343 | 66 | 238 | 3.5 | 6.1 | 0.00 | 0.24 | 0.23 | 78 | 1011.1 |
| 20260509162843 | 66 | 226 | 3.5 | 7.8 | 0.00 | 0.24 | 0.23 | 78 | 1011.1 |
| 20260509162343 | 66 | 217 | 1.7 | 7.0 | 0.00 | 0.24 | 0.23 | 78 | 1011.1 |
| 20260509161843 | 67 | 242 | 0.9 | 6.1 | 0.00 | 0.24 | 0.23 | 78 | 1011.0 |
| 20260509161343 | 66 | 319 | 2.6 | 6.1 | 0.00 | 0.24 | 0.23 | 82 | 1011.0 |
| 20260509160843 | 65 | 283 | 1.7 | 7.8 | 0.00 | 0.24 | 0.23 | 78 | 1011.0 |
| 20260509160343 | 65 | 280 | 0.9 | 2.6 | 0.00 | 0.24 | 0.23 | 80 | 1011.0 |
| 20260509155843 | 65 | 231 | 1.7 | 7.0 | 0.00 | 0.24 | 0.23 | 81 | 1010.9 |
| 20260509155343 | 65 | 327 | 1.7 | 6.1 | 0.00 | 0.24 | 0.23 | 84 | 1011.0 |
| 20260509154843 | 64 | 318 | 2.6 | 5.2 | 0.00 | 0.24 | 0.23 | 84 | 1010.9 |
| 20260509154343 | 63 | 255 | 1.7 | 6.1 | 0.00 | 0.24 | 0.23 | 83 | 1010.9 |
| 20260509153843 | 62 | 236 | 0.9 | 4.3 | 0.00 | 0.24 | 0.23 | 83 | 1010.9 |
| 20260509153343 | 62 | 150 | 2.6 | 4.3 | 0.00 | 0.24 | 0.23 | 84 | 1010.8 |
| 20260509152843 | 62 | 347 | 3.5 | 6.1 | 0.00 | 0.24 | 0.23 | 84 | 1010.6 |
| 20260509152343 | 62 | 290 | 2.6 | 6.1 | 0.00 | 0.24 | 0.23 | 86 | 1010.5 |
| 20260509151843 | 61 | 237 | 2.6 | 5.2 | 0.00 | 0.24 | 0.23 | 86 | 1010.5 |
| 20260509151343 | 61 | 252 | 1.7 | 5.2 | 0.00 | 0.24 | 0.23 | 87 | 1010.5 |
| 20260509150843 | 61 | 260 | 0.9 | 4.3 | 0.00 | 0.24 | 0.23 | 88 | 1010.5 |
| 20260509150343 | 61 | 244 | 1.7 | 4.3 | 0.00 | 0.24 | 0.23 | 90 | 1010.4 |
| 20260509145843 | 60 | 238 | 2.6 | 5.2 | 0.00 | 0.24 | 0.23 | 88 | 1010.3 |
| 20260509145343 | 60 | 234 | 1.7 | 4.3 | 0.00 | 0.24 | 0.23 | 89 | 1010.2 |
| 20260509144843 | 60 | 269 | 1.7 | 4.3 | 0.00 | 0.24 | 0.23 | 89 | 1010.2 |
| 20260509144343 | 60 | 270 | 0.9 | 3.5 | 0.00 | 0.24 | 0.23 | 89 | 1010.3 |
| 20260509143843 | 60 | 279 | 0.0 | 0.9 | 0.00 | 0.24 | 0.23 | 92 | 1010.3 |
| 20260509143346 | 59 | 263 | 0.0 | 1.7 | 0.00 | 0.24 | 0.23 | 92 | 1010.3 |
| 20260509142843 | 59 | 167 | 0.9 | 1.7 | 0.00 | 0.24 | 0.23 | 92 | 1010.3 |
| 20260509142343 | 59 | 259 | 0.9 | 6.1 | 0.00 | 0.24 | 0.23 | 91 | 1010.3 |
| 20260509141843 | 58 | 257 | 0.9 | 1.7 | 0.00 | 0.24 | 0.23 | 93 | 1010.2 |
| 20260509141343 | 58 | 249 | 0.9 | 4.3 | 0.00 | 0.24 | 0.23 | 93 | 1010.4 |
| 20260509140843 | 58 | 252 | 0.9 | 3.5 | 0.00 | 0.24 | 0.23 | 93 | 1010.4 |
| 20260509140343 | 58 | 240 | 0.9 | 1.7 | 0.00 | 0.24 | 0.23 | 94 | 1010.6 |
| 20260509135843 | 58 | 215 | 1.7 | 4.3 | 0.00 | 0.24 | 0.23 | 94 | 1010.5 |
| 20260509135343 | 58 | 237 | 0.9 | 3.5 | 0.00 | 0.24 | 0.23 | 94 | 1010.4 |
| 20260509134843 | 58 | 266 | 0.0 | 3.5 | 0.00 | 0.24 | 0.23 | 95 | 1010.4 |
| 20260509134343 | 58 | 268 | 0.0 | 4.3 | 0.00 | 0.24 | 0.23 | 95 | 1010.4 |
| 20260509133843 | 57 | 198 | 0.0 | 1.7 | 0.00 | 0.24 | 0.23 | 95 | 1010.4 |
| 20260509133343 | 57 | 251 | 0.9 | 1.7 | 0.00 | 0.24 | 0.23 | 95 | 1010.3 |
| 20260509132843 | 57 | 242 | 0.9 | 3.5 | 0.00 | 0.24 | 0.23 | 95 | 1010.4 |
| 20260509132343 | 57 | 229 | 0.9 | 2.6 | 0.00 | 0.24 | 0.23 | 95 | 1010.2 |
| 20260509131843 | 57 | 236 | 0.0 | 2.6 | 0.00 | 0.24 | 0.23 | 95 | 1010.2 |
| 20260509131343 | 57 | 225 | 0.0 | 0.0 | 0.00 | 0.24 | 0.23 | 96 | 1010.2 |
| 20260509131041 | 57 | 225 | 0.0 | 0.0 | 0.00 | 0.24 | 0.23 | 96 | 1010.2 |
| 20260509130843 | 57 | 225 | 0.0 | 0.0 | 0.00 | 0.24 | 0.23 | 96 | 1010.2 |
| 20260509130343 | 56 | 250 | 0.0 | 0.0 | 0.00 | 0.24 | 0.23 | 96 | 1010.2 |
| 20260509125843 | 56 | 321 | 0.0 | 0.0 | 0.00 | 0.24 | 0.23 | 96 | 1010.3 |
| 20260509125344 | 56 | 321 | 0.0 | 0.0 | 0.00 | 0.24 | 0.23 | 96 | 1010.2 |
| 20260509124844 | 55 | 318 | 0.9 | 2.6 | 0.00 | 0.24 | 0.23 | 95 | 1010.1 |
| 20260509124344 | 55 | 247 | 0.0 | 1.7 | 0.00 | 0.24 | 0.23 | 95 | 1010.0 |
| 20260509123844 | 55 | 279 | 0.0 | 0.9 | 0.00 | 0.24 | 0.23 | 95 | 1010.0 |
| 20260509123344 | 55 | 298 | 0.0 | 0.9 | 0.00 | 0.24 | 0.23 | 96 | 1010.0 |
| 20260509122844 | 55 | 277 | 0.0 | 0.9 | 0.00 | 0.24 | 0.23 | 96 | 1010.1 |
| 20260509122344 | 55 | 276 | 0.9 | 0.9 | 0.00 | 0.24 | 0.23 | 96 | 1010.0 |
| 20260509121844 | 54 | 261 | 0.9 | 2.6 | 0.00 | 0.24 | 0.23 | 95 | 1010.0 |
| 20260509121344 | 54 | 275 | 0.9 | 2.6 | 0.00 | 0.24 | 0.23 | 95 | 1010.0 |
| 20260509120844 | 54 | 234 | 0.9 | 2.6 | 0.00 | 0.24 | 0.23 | 95 | 1010.0 |
| 20260509120344 | 54 | 207 | 0.9 | 2.6 | 0.00 | 0.24 | 0.23 | 95 | 1009.9 |